Regional Weather Roundup
Issued by NWS

Home | Current Version | Previous Version | Graphics & Text | Print | Product List | Glossary On
Versions: 1 2 3 4 5 6 7 8 9 10 11 12 13 14 15 16 17 18 19 20 21 22 23 24 25 26 27 28 29 30 31 32 33 34 35 36 37 38 39 40 41 42 43 44 45 46 47 48 49 50
694
ASUS43 KLMK 092210
RWRKY
KENTUCKY REGIONAL WEATHER ROUNDUP
NATIONAL WEATHER SERVICE LOUISVILLE KY
500 PM EST TUE FEB 09 2016

NOTE "FAIR" INDICATES FEW OR NO CLOUDS BELOW 12,000 FEET
WITH NO SIGNIFICANT WEATHER AND/OR OBSTRUCTIONS TO VISIBILITY.

KYZ001>023-026-027-061>063-070>075-092300-
WESTERN AND SOUTH CENTRAL KENTUCKY

CITY           SKY/WX    TMP DP  RH WIND       PRES   REMARKS
PADUCAH        CLOUDY    24  14  65 NW12      30.05R WCI  13
HENDERSON      CLOUDY    21  16  79 W13       30.02R WCI   9
OWENSBORO      LGT SNOW  22  16  78 NW13      30.00R WCI  10
HOPKINSVILLE   LGT SNOW  22  17  79 NW12G21   30.01R WCI  11
BOWLING GREEN  CLOUDY    24  13  62 NW12G18   29.99R WCI  13
GLASGOW        FLURRIES  23  16  75 W10G18    29.96R WCI  12
$$

KYZ024-025-028>034-038-045-046-053-092300-
NORTH CENTRAL KENTUCKY

CITY           SKY/WX    TMP DP  RH WIND       PRES   REMARKS
LOUISVILLE/SDF CLOUDY    25  15  66 W16       29.92R WCI  12
LOUISVILLE/LOU LGT SNOW  24  15  68 W13       29.92R WCI  12
FORT KNOX      LGT SNOW  22  16  76 W13       29.91R WCI  10
$$

KYZ035>037-039>044-047>052-055>060-089>105-092300-
NORTHEAST KENTUCKY

CITY           SKY/WX    TMP DP  RH WIND       PRES   REMARKS
LEXINGTON        N/A     23  32 100 MISG      29.86R
COVINGTON      CLOUDY    24  16  71 W13       29.82R HAZE    WCI  12
FRANKFORT      NOT AVBL
$$

KYZ054-064>069-076>088-106>120-092300-
SOUTHEAST KENTUCKY

CITY           SKY/WX    TMP DP  RH WIND       PRES   REMARKS
JACKSON        FLURRIES  23  14  68 W5        29.82R WCI  17
LONDON         CLOUDY    23  13  65 W10       29.86R WCI  12
SOMERSET       FLURRIES  23  18  80 W8        29.91R WCI  14
MIDDLESBORO    FLURRIES  25  17  72 NW8       29.87R WCI  16
MONTICELLO     FLURRIES  24  17  74 W15       29.91R WCI  11
$$





USA.gov is the U.S. government's official web portal to all federal, state and local government web resources and services.